Regional Weather Roundup
Issued by NWS

Home | Current Version | Previous Version | Text Only | Print | Product List | Glossary Off
Versions: 1 2 3 4 5 6 7 8 9 10 11 12 13 14 15 16 17 18 19 20 21 22 23 24 25 26 27 28 29 30 31 32 33 34 35 36 37 38 39 40 41 42 43 44 45 46 47 48 49 50

870
ASUS44 KJAN 231710
RWRMS

MISSISSIPPI HOURLY WEATHER ROUNDUP
NATIONAL WEATHER SERVICE JACKSON MS
1200 PM CDT WED APR 23 2014

NOTE: "FAIR: INDICATES FEW OR NO CLOUDS BELOW 12,000 FEET WITH NO
SIGNIFICANT WEATHER AND/OR OBSTRUCTIONS TO VISIBILITY.

MSZ001>002-007>008-010>013-018>021-025>028-034>036-231800-
NORTHWEST MISSISSIPPI

CITY           SKY/WX    TMP DP  RH WIND       PRES   REMARKS
CLARKSDALE       N/A     72  41  33 CALM      30.04F
CLEVELAND      FAIR      72  47  40 E7        30.02F
GREENWOOD      SUNNY     75  45  34 NE7       30.02F
GREENVILLE     SUNNY     73  47  39 E6        30.02F
GRENADA        FAIR      70  43  37 E5        30.03F
OLIVE BRANCH   SUNNY     68  37  32 E8        30.04F
OXFORD         LGT RAIN  70  37  30 NE8       30.05F
TUNICA         SUNNY     72  37  28 NE3       30.04F
$$

MSZ003>006-009-014>017-022>024-029>033-037>039-231800-
NORTHEAST MISSISSIPPI

CITY           SKY/WX    TMP DP  RH WIND       PRES   REMARKS
BELMONT        FAIR      68  39  34 NE3       30.03F
COLUMBUS AFB   SUNNY     72  42  33 VRB7      30.02F
CORINTH        FAIR      68  36  30 E12       30.03F
GOLDN TRIANGLE SUNNY     72  46  40 N5        30.05F
STARKVILLE     FAIR      70  43  37 N6        30.02F
TUPELO         SUNNY     70  39  32 E6        30.03F
$$

MSZ040-058-231800-
CENTRAL MISSISSIPPI

CITY           SKY/WX    TMP DP  RH WIND       PRES   REMARKS
JACKSON INTL   SUNNY     77  45  32 N8        30.00F
JACKSON HAWKNS SUNNY     78  47  33 N5        30.00F
MERIDIAN KEY   SUNNY     77  54  44 N6        29.99F
MERIDIAN NAS   SUNNY     75  54  47 N8        30.00F
RAYMOND        FAIR      75  68  78 NW7       30.00F
VICKSBURG      SUNNY     78  42  27 NE14      30.01F
$$

MSZ059>079-231800-
SOUTH MISSISSIPPI

CITY           SKY/WX    TMP DP  RH WIND       PRES   REMARKS
BROOKHAVEN     FAIR      75  50  41 CALM      30.02S
HATTIESBURG    SUNNY     80  59  48 N6        29.99F
MCCOMB         SUNNY     78  52  40 MISG      29.99F
NATCHEZ        SUNNY     77  48  36 E6        30.00F
PINE BELT      SUNNY     77  57  50 N6        30.00F
$$

MSZ080>082-231800-
COASTAL MISSISSIPPI

CITY           SKY/WX    TMP DP  RH WIND       PRES   REMARKS
BAY ST LOUIS   MOSUNNY   79  57  47 CALM      29.98F
BILOXI         PTSUNNY   78  67  67 S10       29.97F
PASCAGOULA     MOSUNNY   79  62  56 VRB3      29.96F
GULFPORT       PTSUNNY   80  64  58 S10       29.97F
$$



USA.gov is the U.S. government's official web portal to all federal, state and local government web resources and services.